FW8716 Weather Reports


time (UTC)temp
F
wind
direction
speed
knots
gust
knots
rain 1hr
in
rain 24hr
in
rain mn
in
humidity
%
barometer
mb
20260504151021 51 211 3.5 13.0 0.00 0.00 0.00 56 1005.8
20260504150519 51 167 3.5 15.6 0.00 0.00 0.00 56 1005.7
20260504141026 50 148 4.3 16.5 0.00 0.00 0.00 56 1005.5
20260504140520 50 161 5.2 12.2 0.00 0.00 0.00 55 1005.4
20260504130520 48 192 5.2 17.4 0.00 0.00 0.00 58 1004.9
20260504110520 43 138 3.5 11.3 0.00 0.00 0.00 68 1005.7
20260504100523 41 159 1.7 10.4 0.00 0.00 0.00 79 1006.1
20260504081539 40 164 0.9 7.8 0.00 0.00 0.00 86 1005.9
20260504081020 40 241 0.9 7.8 0.00 0.00 0.00 86 1005.7
20260504080524 40 275 1.7 17.4 0.00 0.00 0.00 86 1005.7
20260504050520 39 178 1.7 13.0 0.00 0.00 0.00 67 1006.1
20260504045520 39 169 2.6 11.3 0.00 0.00 0.00 64 1006.1
20260504045025 39 128 3.5 14.8 0.00 0.00 0.00 63 1006.2
20260504044536 39 171 1.7 14.8 0.00 0.00 0.00 62 1006.5
20260504044021 39 185 1.7 7.8 0.00 0.00 0.00 60 1006.5
20260504043520 39 154 2.6 14.8 0.00 0.00 0.00 60 1006.5
20260504043046 39 174 1.7 14.8 0.00 0.00 0.00 60 1006.5
20260504042521 39 166 2.6 8.7 0.00 0.00 0.00 58 1006.5
20260504042020 39 173 2.6 13.9 0.00 0.00 0.00 57 1006.5
20260504041536 39 156 3.5 13.9 0.00 0.00 0.00 56 1006.6
20260504041020 39 159 2.6 12.2 0.00 0.00 0.00 55 1006.5
20260504040518 39 137 3.5 12.2 0.00 0.00 0.00 54 1006.5
20260504040034 39 173 2.6 12.2 0.00 0.00 0.00 54 1006.5
20260504035520 39 160 2.6 7.8 0.00 0.00 0.00 53 1006.5
20260504035019 39 167 2.6 7.8 0.00 0.00 0.00 54 1006.4
20260504034547 39 183 1.7 7.8 0.00 0.00 0.00 53 1006.5
20260504034022 39 265 2.6 7.0 0.00 0.00 0.00 53 1006.6
20260504033521 39 0 0.9 8.7 0.00 0.00 0.00 52 1006.7
20260504033037 39 168 1.7 16.5 0.00 0.00 0.00 52 1006.6
20260504032522 39 227 1.7 16.5 0.00 0.00 0.00 52 1006.6
20260504032021 39 162 0.9 8.7 0.00 0.00 0.00 51 1006.6
20260504031546 39 36 1.7 7.8 0.00 0.00 0.00 51 1006.5
20260504031020 39 261 2.6 13.0 0.00 0.00 0.00 52 1006.5
20260504030519 39 205 1.7 13.0 0.00 0.00 0.00 52 1006.6
20260504030050 39 237 1.7 12.2 0.00 0.00 0.00 51 1006.5
20260504025522 39 206 2.6 12.2 0.00 0.00 0.00 51 1006.6
20260504025024 39 237 2.6 12.2 0.00 0.00 0.00 51 1006.5
20260504024536 38 250 4.3 12.2 0.00 0.00 0.00 51 1006.6
20260504024019 38 198 2.6 10.4 0.00 0.00 0.00 51 1006.6
20260504023518 38 168 2.6 15.6 0.00 0.00 0.00 51 1006.5
20260504023035 38 175 2.6 15.6 0.00 0.00 0.00 50 1006.6
20260504022518 38 175 3.5 13.0 0.00 0.00 0.00 51 1006.6
20260504022023 39 163 2.6 13.0 0.00 0.00 0.00 51 1006.7
20260504021545 39 207 2.6 11.3 0.00 0.00 0.00 51 1006.7
20260504021020 38 173 1.7 9.6 0.00 0.00 0.00 52 1006.6
20260504020522 38 224 2.6 10.4 0.00 0.00 0.00 53 1006.6
20260504020038 38 180 1.7 10.4 0.00 0.00 0.00 53 1006.6
20260504015522 38 229 1.7 9.6 0.00 0.00 0.00 55 1006.7
20260504015022 38 192 1.7 6.1 0.00 0.00 0.00 56 1006.6
20260504014536 38 186 0.9 4.3 0.00 0.00 0.00 56 1006.7
20260504014019 37 156 0.9 4.3 0.00 0.00 0.00 57 1006.7
20260504013521 37 238 0.0 2.6 0.00 0.00 0.00 57 1006.6
20260504013038 37 0 0.0 2.6 0.00 0.00 0.00 57 1006.7
20260504012522 37 0 0.0 2.6 0.00 0.00 0.00 56 1006.6
20260504012021 38 0 0.0 1.7 0.00 0.00 0.00 56 1006.6
20260504011535 38 0 0.0 1.7 0.00 0.00 0.00 56 1006.5
20260504011025 38 234 0.0 3.5 0.00 0.00 0.00 55 1006.5
20260504010522 38 0 0.0 6.1 0.00 0.00 0.00 56 1006.4
20260504010050 38 0 0.9 6.1 0.00 0.00 0.00 55 1006.4
20260504005522 38 76 0.9 4.3 0.00 0.00 0.00 54 1006.3
20260504005022 38 0 0.9 4.3 0.00 0.00 0.00 55 1006.2
20260504004542 38 236 0.0 6.1 0.00 0.00 0.00 56 1006.2
20260504004024 38 233 0.0 6.1 0.00 0.00 0.00 55 1006.1
20260504003522 38 194 0.9 5.2 0.00 0.00 0.00 56 1006.0
20260504003036 38 313 0.9 5.2 0.00 0.00 0.00 56 1005.9
20260504002523 39 0 0.0 5.2 0.00 0.00 0.00 55 1006.0
20260504002020 38 299 0.9 5.2 0.00 0.00 0.00 56 1006.0
20260504001539 39 277 0.9 2.6 0.00 0.00 0.00 55 1005.9
20260504001022 39 277 0.9 2.6 0.00 0.00 0.00 56 1005.9
20260504000523 39 0 0.0 2.6 0.00 0.00 0.00 55 1005.9
20260504000037 39 272 0.0 2.6 0.00 0.00 0.00 55 1005.8
20260503235522 39 254 0.9 7.0 0.00 0.00 0.00 54 1005.7
20260503235018 39 253 0.0 7.0 0.00 0.00 0.00 55 1005.7
20260503234539 40 246 0.0 3.5 0.00 0.00 0.00 54 1005.7
20260503234020 40 217 0.9 6.1 0.00 0.00 0.00 54 1005.7
20260503233523 40 215 2.6 6.1 0.00 0.00 0.00 53 1005.6
20260503233038 40 297 0.9 4.3 0.00 0.00 0.00 54 1005.6
20260503232522 40 151 0.0 4.3 0.00 0.00 0.00 53 1005.7
20260503232021 40 150 0.9 3.5 0.00 0.00 0.00 53 1005.6
20260503231536 40 0 0.0 6.1 0.00 0.00 0.00 53 1005.5
20260503231022 41 0 0.9 6.1 0.00 0.00 0.00 55 1005.5
20260503230519 41 146 0.0 6.1 0.00 0.00 0.00 54 1005.5
20260503230050 41 0 0.9 6.1 0.00 0.00 0.00 54 1005.4
20260503225519 41 251 0.9 4.3 0.00 0.00 0.00 54 1005.5
20260503225022 41 183 0.0 6.1 0.00 0.00 0.00 55 1005.6
20260503224536 41 255 2.6 6.1 0.00 0.00 0.00 54 1005.6
20260503224020 41 167 0.9 8.7 0.00 0.00 0.00 54 1005.6
20260503223526 41 234 1.7 8.7 0.00 0.00 0.00 53 1005.6
20260503223038 41 223 3.5 8.7 0.00 0.00 0.00 54 1005.6
20260503222518 41 158 0.9 7.8 0.00 0.00 0.00 54 1005.6
20260503222019 41 211 0.9 10.4 0.00 0.00 0.00 55 1005.6
20260503221541 41 237 0.9 10.4 0.00 0.00 0.00 55 1005.5
20260503221021 41 0 1.7 6.1 0.00 0.00 0.00 54 1005.5
20260503220518 41 255 0.9 6.1 0.00 0.00 0.00 55 1005.6
20260503220037 41 256 1.7 6.1 0.00 0.00 0.00 56 1005.5
20260503215519 40 181 0.0 6.1 0.00 0.00 0.00 56 1005.5
20260503215022 40 0 0.9 8.7 0.00 0.00 0.00 55 1005.4
20260503214551 41 150 0.9 8.7 0.00 0.00 0.00 55 1005.4
20260503214020 41 192 1.7 13.9 0.00 0.00 0.00 54 1005.4
20260503213520 41 184 2.6 13.9 0.00 0.00 0.00 55 1005.5
20260503213036 41 175 0.9 9.6 0.00 0.00 0.00 55 1005.4
20260503212520 41 151 1.7 17.4 0.00 0.00 0.00 54 1005.4
20260503212019 41 194 3.5 17.4 0.00 0.00 0.00 54 1005.3
20260503211534 42 153 3.5 12.2 0.00 0.00 0.00 53 1005.4
20260503211020 42 258 1.7 8.7 0.00 0.00 0.00 54 1005.2
20260503210520 42 242 1.7 9.6 0.00 0.00 0.00 54 1005.4
20260503210035 42 225 2.6 9.6 0.00 0.00 0.00 53 1005.3
20260503205519 42 183 0.9 13.0 0.00 0.00 0.00 54 1005.3
20260503205024 42 291 0.9 14.8 0.00 0.00 0.00 54 1005.4
20260503204542 41 240 4.3 14.8 0.00 0.00 0.00 54 1005.2
20260503204020 41 265 0.9 6.1 0.00 0.00 0.00 55 1005.2
20260503203523 41 0 0.9 9.6 0.00 0.00 0.00 54 1005.3
20260503203041 42 153 1.7 11.3 0.00 0.00 0.00 54 1005.2
20260503202526 41 264 3.5 11.3 0.00 0.00 0.00 53 1005.2
20260503202021 41 195 1.7 10.4 0.00 0.00 0.00 54 1005.3
20260503201541 42 189 3.5 10.4 0.00 0.00 0.00 53 1005.2
20260503201020 43 243 1.7 7.8 0.00 0.00 0.00 53 1005.2
20260503200521 43 263 0.9 10.4 0.00 0.00 0.00 54 1005.2
20260503200036 42 315 3.5 10.4 0.00 0.00 0.00 55 1005.2
20260503195519 41 217 1.7 8.7 0.00 0.00 0.00 54 1005.2
20260503195023 41 119 1.7 7.0 0.00 0.00 0.00 54 1005.4
20260503194542 42 149 0.9 7.8 0.00 0.00 0.00 54 1005.4
20260503194022 41 205 0.9 7.8 0.00 0.00 0.00 55 1005.4
20260503193522 40 137 0.9 4.3 0.00 0.00 0.00 56 1005.5
20260503193034 40 215 0.9 4.3 0.00 0.00 0.00 56 1005.6
20260503192519 40 259 0.0 4.3 0.00 0.00 0.00 56 1005.6
20260503192019 40 229 0.9 18.2 0.00 0.00 0.00 57 1005.7
20260503191538 39 198 1.7 18.2 0.00 0.00 0.00 56 1005.6
20260503191021 40 229 3.5 10.4 0.00 0.00 0.00 55 1005.6
20260503190519 40 279 3.5 9.6 0.00 0.00 0.00 55 1005.6
20260503190045 40 273 1.7 10.4 0.00 0.00 0.00 55 1005.6
20260503185523 40 229 1.7 10.4 0.00 0.00 0.00 55 1005.7
20260503185024 40 158 2.6 10.4 0.00 0.00 0.00 55 1005.6
20260503184536 40 278 0.9 9.6 0.00 0.00 0.00 57 1005.7
20260503184021 39 253 1.7 9.6 0.00 0.00 0.00 58 1005.7
20260503183520 39 217 0.9 6.1 0.00 0.00 0.00 58 1005.7
20260503183040 39 149 0.9 12.2 0.00 0.00 0.00 57 1005.7
20260503182520 39 147 1.7 12.2 0.00 0.00 0.00 57 1005.6
20260503182019 39 221 2.6 16.5 0.00 0.00 0.00 57 1005.7
20260503181554 40 207 4.3 16.5 0.00 0.00 0.00 55 1005.6
20260503181021 40 167 3.5 14.8 0.00 0.00 0.00 53 1005.5
20260503180520 41 171 0.9 6.1 0.00 0.00 0.00 52 1005.6
20260503180045 41 188 0.9 8.7 0.00 0.00 0.00 53 1005.6
20260503175522 41 232 0.9 11.3 0.00 0.00 0.00 54 1005.5
20260503175022 40 115 2.6 11.3 0.00 0.00 0.00 56 1005.6
20260503174541 39 213 0.9 12.2 0.00 0.00 0.00 56 1005.6
20260503174025 39 175 1.7 12.2 0.00 0.00 0.00 56 1005.5
20260503173520 38 136 1.7 12.2 0.00 0.00 0.00 57 1005.5
20260503173040 39 171 0.9 10.4 0.00 0.00 0.00 56 1005.6
20260503172519 40 213 0.9 10.4 0.00 0.00 0.00 55 1005.7
20260503172020 40 163 0.9 15.6 0.00 0.00 0.00 53 1005.6
20260503171536 41 234 2.6 15.6 0.00 0.00 0.00 51 1005.6
20260503171022 42 213 4.3 17.4 0.00 0.00 0.00 48 1005.2
20260503170522 43 229 4.3 17.4 0.00 0.00 0.00 48 1005.4